Simultaneous Nadir Overpasses (SNOs) Predictions

Prediction of SNOs between METOP-A and NOAA-19 Satellite Orbit:

Table of predicted SNOs for the next 14.0 days since TLE Epoch: 12/29/2017
Index Date (METOP-A) Time (METOP-A) Lat,Lon (METOP-A) SZA (METOP-A ) Date (NOAA-19) Time (NOAA-19) Lat,Lon (NOAA-19) SZA (NOAA-19 ) Distance(km) Time Diff (sec)
1 12/30/2017 14:40:07 78.30, -31.62 101.46 12/30/2017 14:39:01 78.32, -35.06 101.40 77.59 66
2 12/30/2017 15:30:56 -78.00, 134.14 78.88 12/30/2017 15:29:53 -78.01, 134.05 78.89 2.14 63
3 12/30/2017 16:21:36 78.00, -58.56 101.11 12/30/2017 16:20:54 78.01, -58.69 101.12 3.22 42
4 12/30/2017 17:12:18 -77.98, 108.69 78.91 12/30/2017 17:11:54 -77.99, 108.62 78.90 2.09 24
5 12/30/2017 18:02:58 77.98, -84.00 101.09 12/30/2017 18:02:55 77.99, -84.12 101.10 3.29 3
6 12/30/2017 18:53:40 -77.96, 83.25 78.94 12/30/2017 18:53:55 -77.98, 83.19 78.92 2.37 15
7 12/30/2017 19:44:20 77.96,-109.45 101.06 12/30/2017 19:44:55 77.94,-109.34 101.05 3.07 35
8 12/30/2017 20:35:02 -77.94, 57.81 78.97 12/30/2017 20:35:56 -77.97, 57.77 78.94 2.88 54
9 12/30/2017 21:25:42 77.94,-134.89 101.03 12/30/2017 21:26:56 77.93,-134.77 101.03 3.00 74
10 01/10/2018 10:49:19 78.05, 24.74 99.96 01/10/2018 10:48:12 78.02, 24.72 99.92 3.42 67
11 01/10/2018 11:40:01 -78.04,-168.00 80.07 01/10/2018 11:39:15 -78.01,-168.00 80.10 2.98 46
12 01/10/2018 12:30:41 78.03, -0.71 99.92 01/10/2018 12:30:13 78.01, -0.71 99.90 2.52 28
13 01/10/2018 13:21:23 -78.02, 166.56 80.10 01/10/2018 13:21:16 -78.00, 166.57 80.12 2.20 7
14 01/10/2018 14:12:03 78.01, -26.15 99.89 01/10/2018 14:12:14 78.00, -26.14 99.88 1.64 11
15 01/10/2018 15:02:45 -78.00, 141.11 80.13 01/10/2018 15:03:17 -77.99, 141.15 80.14 1.55 32
16 01/10/2018 15:53:25 77.99, -51.60 99.86 01/10/2018 15:54:15 77.99, -51.57 99.86 0.92 50
17 01/10/2018 16:44:07 -77.98, 115.67 80.17 01/10/2018 16:45:18 -77.98, 115.72 80.16 1.25 71




NCC Satellite Simultaneous Nadir Overpasses (SNOs) Prediction Service
